TOM888 ESSA-ESGG

Flight info

Callsign TOM888
Flight time 0h 44m
Altitude 28000
Route ARS N623 BEDLA N866 LAPSI DCT MOXAM
Aircraft B738/M-SDE2E3FGHIRWXY/LB1

Departure

Time 2026-05-06 09:24
Airport Stockholm-Arlanda Airport (ESSA)

Arrival

Time 2026-05-06 10:08
Airport Göteborg Landvetter Airport (ESGG)
Time Latitude Longitude Altitude Speed Heading
2026-05-06 08:49 59.65147 17.92699 111 ft 0 kts 190°
2026-05-06 09:17 59.65156 17.92702 111 ft 4 kts 191°
2026-05-06 09:17 59.65183 17.92712 111 ft 4 kts 191°
2026-05-06 09:18 59.65209 17.92722 111 ft 4 kts 191°
2026-05-06 09:18 59.65236 17.92732 109 ft 4 kts 191°
2026-05-06 09:18 59.65253 17.92738 108 ft 0 kts 191°
2026-05-06 09:21 59.65248 17.92735 108 ft 1 kts 200°
2026-05-06 09:21 59.65243 17.92701 109 ft 5 kts 270°
2026-05-06 09:21 59.65261 17.92590 109 ft 11 kts 288°
2026-05-06 09:21 59.65291 17.92412 108 ft 17 kts 288°
2026-05-06 09:22 59.65368 17.92277 104 ft 20 kts 10°
2026-05-06 09:22 59.65504 17.92327 104 ft 19 kts 10°
2026-05-06 09:22 59.65635 17.92374 103 ft 19 kts 10°
2026-05-06 09:22 59.65762 17.92420 104 ft 18 kts 10°
2026-05-06 09:23 59.65879 17.92453 106 ft 13 kts 345°
2026-05-06 09:23 59.65918 17.92299 110 ft 13 kts 281°
2026-05-06 09:23 59.65924 17.92135 114 ft 11 kts 237°
2026-05-06 09:23 59.65888 17.92106 114 ft 1 kts 190°
2026-05-06 09:24 59.65848 17.92092 111 ft 24 kts 191°
2026-05-06 09:24 59.65399 17.91927 105 ft 106 kts 190°
2026-05-06 09:24 59.64452 17.91589 154 ft 165 kts 191°
2026-05-06 09:24 59.63335 17.91013 996 ft 163 kts 199°
2026-05-06 09:25 59.62226 17.90551 1970 ft 164 kts 192°
2026-05-06 09:25 59.61152 17.89469 2408 ft 194 kts 232°
2026-05-06 09:25 59.60388 17.87078 2770 ft 215 kts 239°
2026-05-06 09:25 59.59575 17.84539 3436 ft 221 kts 238°
2026-05-06 09:26 59.58750 17.81994 4212 ft 225 kts 241°
2026-05-06 09:26 59.57986 17.79136 4726 ft 248 kts 245°
2026-05-06 09:26 59.57201 17.76023 5530 ft 257 kts 246°
2026-05-06 09:26 59.56717 17.72671 6529 ft 256 kts 268°
2026-05-06 09:27 59.56757 17.69154 7476 ft 257 kts 272°
2026-05-06 09:27 59.56839 17.65612 8394 ft 260 kts 272°
2026-05-06 09:27 59.56923 17.62027 9350 ft 262 kts 272°
2026-05-06 09:27 59.57007 17.58417 10250 ft 265 kts 271°
2026-05-06 09:28 59.57090 17.54701 10611 ft 287 kts 272°
2026-05-06 09:28 59.57177 17.50599 10828 ft 312 kts 272°
2026-05-06 09:28 59.57268 17.46165 11075 ft 333 kts 272°
2026-05-06 09:28 59.57360 17.41534 11713 ft 341 kts 272°
2026-05-06 09:29 59.57450 17.36853 12587 ft 342 kts 272°
2026-05-06 09:29 59.57538 17.32164 13535 ft 342 kts 272°
2026-05-06 09:29 59.57624 17.27461 14381 ft 344 kts 272°
2026-05-06 09:29 59.57708 17.22740 15204 ft 346 kts 271°
2026-05-06 09:30 59.57791 17.17991 16044 ft 347 kts 271°
2026-05-06 09:30 59.57871 17.13288 16896 ft 348 kts 271°
2026-05-06 09:30 59.57951 17.08498 17722 ft 350 kts 270°
2026-05-06 09:30 59.58030 17.03678 18477 ft 353 kts 270°
2026-05-06 09:31 59.58108 16.98817 19162 ft 355 kts 270°
2026-05-06 09:31 59.58184 16.93937 19842 ft 357 kts 270°
2026-05-06 09:31 59.58259 16.89031 20531 ft 358 kts 270°
2026-05-06 09:31 59.58332 16.84102 21209 ft 360 kts 269°
2026-05-06 09:32 59.58405 16.79146 21865 ft 362 kts 269°
2026-05-06 09:32 59.58476 16.74161 22488 ft 365 kts 269°
2026-05-06 09:32 59.58544 16.69216 23099 ft 367 kts 269°
2026-05-06 09:32 59.58644 16.64173 23686 ft 370 kts 272°
2026-05-06 09:33 59.59044 16.59126 24164 ft 375 kts 277°
2026-05-06 09:33 59.59601 16.54085 24641 ft 377 kts 278°
2026-05-06 09:33 59.60182 16.49018 25122 ft 380 kts 277°
2026-05-06 09:33 59.60743 16.43907 25537 ft 382 kts 277°
2026-05-06 09:34 59.61278 16.38747 25963 ft 384 kts 276°
2026-05-06 09:34 59.61799 16.33576 26486 ft 384 kts 276°
2026-05-06 09:34 59.62128 16.28404 27095 ft 375 kts 265°
2026-05-06 09:34 59.61798 16.23418 27731 ft 369 kts 256°
2026-05-06 09:35 59.61099 16.18542 27981 ft 369 kts 249°
2026-05-06 09:35 59.59956 16.14030 28007 ft 369 kts 238°
2026-05-06 09:35 59.58467 16.09898 28012 ft 371 kts 237°
2026-05-06 09:36 59.55456 16.01621 28009 ft 372 kts 237°
2026-05-06 09:36 59.52468 15.93297 27999 ft 372 kts 237°
2026-05-06 09:37 59.49501 15.85037 27947 ft 372 kts 237°
2026-05-06 09:37 59.48005 15.80889 27991 ft 371 kts 237°
2026-05-06 09:37 59.46511 15.76753 27990 ft 371 kts 237°
2026-05-06 09:38 59.43519 15.68485 28009 ft 372 kts 237°
2026-05-06 09:38 59.40513 15.60206 28003 ft 372 kts 237°
2026-05-06 09:38 59.39009 15.56073 27999 ft 373 kts 237°
2026-05-06 09:39 59.37521 15.51993 28003 ft 373 kts 237°
2026-05-06 09:39 59.36012 15.47861 27997 ft 373 kts 237°
2026-05-06 09:39 59.34501 15.43730 28001 ft 373 kts 236°
2026-05-06 09:39 59.32988 15.39604 27999 ft 373 kts 236°
2026-05-06 09:40 59.31474 15.35479 27991 ft 373 kts 236°
2026-05-06 09:40 59.29960 15.31363 27995 ft 373 kts 236°
2026-05-06 09:40 59.26928 15.23140 27947 ft 372 kts 236°
2026-05-06 09:41 59.25414 15.19045 27996 ft 371 kts 236°
2026-05-06 09:41 59.23921 15.15012 27988 ft 371 kts 236°
2026-05-06 09:41 59.22409 15.10932 27992 ft 371 kts 236°
2026-05-06 09:41 59.20894 15.06854 27994 ft 371 kts 236°
2026-05-06 09:42 59.19377 15.02780 27993 ft 371 kts 236°
2026-05-06 09:42 59.17858 14.98707 27995 ft 371 kts 236°
2026-05-06 09:42 59.16338 14.94640 27996 ft 371 kts 236°
2026-05-06 09:42 59.14818 14.90578 27998 ft 371 kts 236°
2026-05-06 09:43 59.13295 14.86511 27993 ft 371 kts 236°
2026-05-06 09:43 59.11770 14.82445 27998 ft 372 kts 236°
2026-05-06 09:43 59.08730 14.74362 28004 ft 373 kts 236°
2026-05-06 09:44 59.05657 14.66215 27996 ft 374 kts 236°
2026-05-06 09:44 59.04118 14.62146 27983 ft 373 kts 235°
2026-05-06 09:44 59.02579 14.58085 27986 ft 373 kts 235°
2026-05-06 09:45 59.01040 14.54031 27996 ft 373 kts 235°
2026-05-06 09:45 58.99520 14.50031 27999 ft 373 kts 235°
2026-05-06 09:45 58.97976 14.45977 27999 ft 373 kts 235°
2026-05-06 09:45 58.96433 14.41928 27998 ft 374 kts 235°
2026-05-06 09:46 58.94888 14.37882 27998 ft 374 kts 235°
2026-05-06 09:46 58.93340 14.33838 27997 ft 374 kts 235°
2026-05-06 09:46 58.91790 14.29798 27997 ft 374 kts 235°
2026-05-06 09:46 58.90237 14.25768 27994 ft 373 kts 235°
2026-05-06 09:47 58.88683 14.21749 27998 ft 373 kts 235°
2026-05-06 09:47 58.87130 14.17740 27995 ft 373 kts 235°
2026-05-06 09:47 58.85609 14.13818 27734 ft 368 kts 235°
2026-05-06 09:47 58.84095 14.09922 27289 ft 358 kts 235°
2026-05-06 09:48 58.82612 14.06109 26769 ft 352 kts 234°
2026-05-06 09:48 58.81150 14.02355 26162 ft 349 kts 234°
2026-05-06 09:48 58.79697 13.98628 25620 ft 346 kts 234°
2026-05-06 09:48 58.78253 13.94929 25073 ft 345 kts 235°
2026-05-06 09:49 58.76815 13.91251 24537 ft 342 kts 235°
2026-05-06 09:49 58.75383 13.87594 24017 ft 343 kts 235°
2026-05-06 09:49 58.73945 13.83923 23486 ft 352 kts 235°
2026-05-06 09:49 58.72460 13.80142 22842 ft 353 kts 235°
2026-05-06 09:50 58.70984 13.76394 22299 ft 349 kts 235°
2026-05-06 09:50 58.69529 13.72703 21767 ft 344 kts 235°
2026-05-06 09:50 58.68089 13.69058 21239 ft 340 kts 235°
2026-05-06 09:50 58.66674 13.65479 20732 ft 337 kts 235°
2026-05-06 09:51 58.65264 13.61919 20212 ft 334 kts 235°
2026-05-06 09:51 58.63859 13.58375 19709 ft 333 kts 235°
2026-05-06 09:51 58.62475 13.54887 19224 ft 333 kts 235°
2026-05-06 09:51 58.61066 13.51343 18732 ft 336 kts 235°
2026-05-06 09:52 58.59636 13.47748 18208 ft 342 kts 235°
2026-05-06 09:52 58.58190 13.44121 17626 ft 342 kts 235°
2026-05-06 09:52 58.56753 13.40524 17116 ft 337 kts 235°
2026-05-06 09:52 58.55333 13.36975 16597 ft 334 kts 235°
2026-05-06 09:53 58.53924 13.33464 16107 ft 331 kts 234°
2026-05-06 09:53 58.52363 13.30232 15595 ft 333 kts 221°
2026-05-06 09:53 58.50508 13.27679 15145 ft 333 kts 218°
2026-05-06 09:53 58.48597 13.25148 14653 ft 335 kts 218°
2026-05-06 09:54 58.46672 13.22603 14177 ft 338 kts 218°
2026-05-06 09:54 58.44727 13.20016 13646 ft 343 kts 218°
2026-05-06 09:54 58.42765 13.17397 13087 ft 344 kts 218°
2026-05-06 09:54 58.40817 13.14791 12572 ft 341 kts 218°
2026-05-06 09:55 58.38887 13.12206 12068 ft 337 kts 217°
2026-05-06 09:55 58.36975 13.09644 11577 ft 335 kts 217°
2026-05-06 09:55 58.35078 13.07102 11080 ft 332 kts 217°
2026-05-06 09:55 58.33199 13.04587 10758 ft 326 kts 217°
2026-05-06 09:56 58.31405 13.02188 10617 ft 314 kts 217°
2026-05-06 09:56 58.29649 12.99844 10476 ft 304 kts 217°
2026-05-06 09:56 58.27947 12.97573 10342 ft 294 kts 217°
2026-05-06 09:56 58.26299 12.95374 10218 ft 285 kts 217°
2026-05-06 09:57 58.24708 12.93257 10102 ft 277 kts 217°
2026-05-06 09:57 58.23306 12.91390 9980 ft 270 kts 217°
2026-05-06 09:57 58.21769 12.89347 9665 ft 269 kts 217°
2026-05-06 09:57 58.20269 12.87354 9397 ft 267 kts 216°
2026-05-06 09:58 58.18749 12.85336 9104 ft 266 kts 216°
2026-05-06 09:58 58.17269 12.83374 8831 ft 264 kts 216°
2026-05-06 09:58 58.15882 12.81537 8567 ft 263 kts 216°
2026-05-06 09:58 58.14645 12.79902 8339 ft 262 kts 216°
2026-05-06 09:59 58.13152 12.77929 8062 ft 261 kts 216°
2026-05-06 09:59 58.11670 12.75973 7796 ft 259 kts 215°
2026-05-06 09:59 58.10202 12.74021 7520 ft 258 kts 216°
2026-05-06 09:59 58.08792 12.72094 7261 ft 257 kts 216°
2026-05-06 10:00 58.07346 12.70108 6984 ft 257 kts 215°
2026-05-06 10:00 58.05899 12.68124 6714 ft 256 kts 215°
2026-05-06 10:00 58.04552 12.66277 6472 ft 255 kts 214°
2026-05-06 10:00 58.03113 12.64308 6182 ft 256 kts 214°
2026-05-06 10:01 58.01674 12.62342 5906 ft 255 kts 214°
2026-05-06 10:01 58.00238 12.60391 5623 ft 254 kts 214°
2026-05-06 10:01 57.98853 12.58506 5510 ft 247 kts 214°
2026-05-06 10:01 57.97422 12.56802 5358 ft 240 kts 208°
2026-05-06 10:02 57.95950 12.55320 5120 ft 240 kts 206°
2026-05-06 10:02 57.94460 12.53896 4856 ft 240 kts 205°
2026-05-06 10:02 57.92968 12.52500 4652 ft 239 kts 205°
2026-05-06 10:02 57.91494 12.51125 4531 ft 233 kts 205°
2026-05-06 10:03 57.90094 12.49833 4464 ft 222 kts 204°
2026-05-06 10:03 57.88744 12.48582 4329 ft 210 kts 204°
2026-05-06 10:03 57.87471 12.47403 4229 ft 198 kts 205°
2026-05-06 10:03 57.86280 12.46248 4147 ft 188 kts 205°
2026-05-06 10:04 57.85115 12.45144 3983 ft 186 kts 204°
2026-05-06 10:04 57.83953 12.44073 3760 ft 186 kts 204°
2026-05-06 10:04 57.82798 12.43019 3586 ft 184 kts 204°
2026-05-06 10:04 57.81651 12.41982 3378 ft 182 kts 205°
2026-05-06 10:05 57.80514 12.40937 3185 ft 182 kts 204°
2026-05-06 10:05 57.79400 12.39933 2991 ft 178 kts 204°
2026-05-06 10:05 57.78307 12.38936 2839 ft 171 kts 204°
2026-05-06 10:05 57.77247 12.37969 2648 ft 172 kts 204°
2026-05-06 10:06 57.76183 12.37001 2453 ft 171 kts 205°
2026-05-06 10:06 57.75127 12.36037 2226 ft 167 kts 203°
2026-05-06 10:06 57.74091 12.35096 2005 ft 165 kts 203°
2026-05-06 10:06 57.73067 12.34166 1785 ft 164 kts 204°
2026-05-06 10:07 57.72054 12.33242 1549 ft 158 kts 204°
2026-05-06 10:07 57.71086 12.32359 1348 ft 156 kts 203°
2026-05-06 10:07 57.70125 12.31483 1127 ft 150 kts 204°
2026-05-06 10:07 57.69227 12.30652 881 ft 145 kts 205°
2026-05-06 10:08 57.68321 12.29826 680 ft 145 kts 204°
2026-05-06 10:08 57.67424 12.29020 522 ft 142 kts 204°
2026-05-06 10:08 57.66638 12.28304 511 ft 105 kts 206°
2026-05-06 10:08 57.66225 12.27922 509 ft 19 kts 205°
2026-05-06 10:09 57.66130 12.27994 507 ft 16 kts 120°
2026-05-06 10:09 57.66122 12.28171 508 ft 14 kts 43°
2026-05-06 10:09 57.66204 12.28254 509 ft 13 kts 26°
2026-05-06 10:09 57.66285 12.28328 510 ft 13 kts 26°
2026-05-06 10:10 57.66364 12.28398 510 ft 12 kts 26°
2026-05-06 10:10 57.66441 12.28469 510 ft 12 kts 26°
2026-05-06 10:10 57.66516 12.28537 511 ft 12 kts 26°
2026-05-06 10:10 57.66603 12.28617 511 ft 17 kts 26°
2026-05-06 10:11 57.66732 12.28735 512 ft 23 kts 26°
2026-05-06 10:11 57.66878 12.28868 512 ft 23 kts 26°
2026-05-06 10:11 57.67020 12.28996 513 ft 19 kts 26°
2026-05-06 10:11 57.67034 12.29107 514 ft 9 kts 113°
2026-05-06 10:12 57.67007 12.29213 515 ft 9 kts 116°
2026-05-06 10:12 57.66981 12.29315 515 ft 8 kts 115°
2026-05-06 10:12 57.66944 12.29319 515 ft 6 kts 201°
2026-05-06 10:12 57.66914 12.29325 515 ft 3 kts 132°
2026-05-06 10:13 57.66904 12.29358 515 ft 3 kts 116°
2026-05-06 10:13 57.66896 12.29391 515 ft 3 kts 116°
2026-05-06 10:13 57.66889 12.29417 515 ft 1 kts 115°
2026-05-06 10:13 57.66888 12.29420 515 ft 0 kts 115°
2026-05-06 10:14 57.66888 12.29421 515 ft 0 kts 115°
2026-05-06 10:18 57.66888 12.29422 515 ft 0 kts 116°